This is the latest recevied weather packets stored in our database for station/object DJ5NF-10. If no packets are shown the sender has not sent any weather packets the latest 10 day(s).
| Time | Temp. | Humidity | Pressure | Rain* | Wind** | Luminosity | Snow |
|---|---|---|---|---|---|---|---|
| 1777786889 | 23.89° C | 32% | 1007.3 hPa | - | - | - | - |
| 1777784189 | 23.89° C | 32% | 1007.1 hPa | - | - | - | - |
| 1777781489 | 23.89° C | 32% | 1007.3 hPa | - | - | - | - |
| 1777776089 | 24.44° C | 31% | 1007.8 hPa | - | - | - | - |
| 1777773389 | 24.44° C | 31% | 1007.9 hPa | - | - | - | - |
| 1777770689 | 24.44° C | 31% | 1008.4 hPa | - | - | - | - |
| 1777767989 | 25° C | 31% | 1009 hPa | - | - | - | - |
| 1777765289 | 25° C | 31% | 1009.8 hPa | - | - | - | - |
| 1777762589 | 25° C | 31% | 1009.4 hPa | - | - | - | - |
| 1777759889 | 25.56° C | 30% | 1009.5 hPa | - | - | - | - |
| 1777757189 | 25.56° C | 30% | 1009.8 hPa | - | - | - | - |
| 1777754488 | 25.56° C | 30% | 1010.2 hPa | - | - | - | - |
| 1777751788 | 26.11° C | 30% | 1010.9 hPa | - | - | - | - |
| 1777749088 | 26.11° C | 29% | 1011.9 hPa | - | - | - | - |
| 1777746388 | 26.67° C | 29% | 1009.6 hPa | - | - | - | - |
| 1777743688 | 26.67° C | 29% | 1009.7 hPa | - | - | - | - |
| 1777740988 | 26.67° C | 29% | 1009.9 hPa | - | - | - | - |
| 1777738288 | 26.11° C | 29% | 1010.6 hPa | - | - | - | - |
| 1777735588 | 26.11° C | 29% | 1011.4 hPa | - | - | - | - |
| 1777732888 | 26.11° C | 28% | 1012.1 hPa | - | - | - | - |
| 1777730188 | 26.67° C | 28% | 1012.5 hPa | - | - | - | - |
| 1777727488 | 26.11° C | 28% | 1012.5 hPa | - | - | - | - |
| 1777724788 | 26.11° C | 27% | 1013 hPa | - | - | - | - |
| 1777722088 | 25.56° C | 27% | 1013.5 hPa | - | - | - | - |
| 1777719387 | 25° C | 27% | 1013.9 hPa | - | - | - | - |
* Rain since midnight (hover to see other rain measurements)
** Current wind speed in m/s (hover to see current wind gust speed)